Regional Weather Roundup
Issued by NWS Wakefield, VA

Home | Current Version | Previous Version | Text Only | Print | Product List | Glossary On
Versions: 1 2 3 4 5 6 7 8 9 10 11 12 13 14 15 16 17 18 19 20 21 22 23 24 25 26 27
000
ASUS41 KAKQ 231815
RWRAKQ

REGIONAL WEATHER ROUNDUP
NATIONAL WEATHER SERVICE WAKEFIELD VA
200 PM EDT SUN JUL 23 2017

Note: "fair" indicates few or no clouds below 12,000 feet with no
significant weather and/or obstructions to visibility. * = Denotes
station may not report precipitation (e.g., rain,snow,etc.),
thunder or fog.

VAZ042-051-052>054-056-231900-
NORTHERN VIRGINIA

CITY           SKY/WX    TMP DP  RH WIND       PRES   REMARKS
WASH NATIONAL  HVY RAIN  78  76  93 S20G31    29.80S VSB 1/2
DULLES         CLOUDY    84  72  67 SW5       29.80F
FORT BELVOIR   LGT RAIN  79  75  89 CALM      29.79F FOG
QUANTICO       TSTM      77  75  93 W3        29.82F
FREDERICKSBRG* CLOUDY    83  76  78 MISG      29.80F
STAFFORD*      LGT RAIN  77  77  98 NE3       29.85F
WARRENTON      CLOUDY    80  73  80 S6        29.80F
CULPEPER*      CLOUDY    80  76  90 CALM      29.83S
MANASSAS*      CLOUDY    79  75  87 S7        29.80F
LEESBURG*      MOSUNNY   88  75  66 N5        29.81F HX  97
WINCHESTER     PTSUNNY   82  70  65 CALM      29.80F
FRONT ROYAL*   CLOUDY    84  72  65 SW6       29.81F
LURAY*         CLOUDY    82  72  69 SW10      29.85R
$$

VAZ048-049-060>072-079>083-231900-
CENTRAL AND SOUTH CENTRAL VIRGINIA

CITY           SKY/WX    TMP DP  RH WIND       PRES   REMARKS
RICHMOND       CLOUDY    94  69  44 W5        29.80F HX  99
CHESTERFIELD*  FAIR      92  72  51 VRB7      29.82F HX  99
PETERSBURG*    CLOUDY    93  69  45 CALM      29.83R HX  98
HANOVER        CLOUDY    91  65  41 W7        29.81F
TAPPAHANNOCK*  CLOUDY    93  63  36 N5        29.80F
QUINTON*       FAIR      90  73  57 SE3       29.80S HX  99
CHARLOTTSVILLE CLOUDY    89  68  49 VRB6      29.83F
GORDONSVILLE*  CLOUDY    88  72  58 SW7       29.82F
ORANGE*        CLOUDY    84  70  61 SW3       29.80F
LOUISA*        PTSUNNY   90  68  48 CALM      29.80F
BUMPASS*       FAIR      89  72  57 SW3       29.81F HX  96
FARMVILLE*     MOSUNNY   93  56  28 SW3       29.81F
CREWE*         FAIR      89  63  42 SW5       29.83F
FORT PICKETT*  FAIR     N/A N/A N/A W8        29.84S
CHASE CITY*    FAIR      92  69  46 SW3       29.83F HX  97
CLARKSVILLE*   FAIR      95  72  46 W6        29.83F HX 103
SOUTH HILL*    MOSUNNY   93  74  52 SW8       29.88F HX 103
LAWRENCEVILLE* FAIR      95  71  44 MISG      29.82F HX 102
EMPORIA*       PTSUNNY   90  72  55 N3        29.83F HX  96
$$

VAZ088>098-231900-
SOUTHEAST VIRGINIA

CITY           SKY/WX    TMP DP  RH WIND       PRES   REMARKS
NORFOLK        CLOUDY    91  75  59 W8        29.81F HX 101
VIRGINIA BEACH CLOUDY    92  74  55 W7        29.80F HX 101
NORFOLK NAVAL  CLOUDY    92  76  59 W6        29.82F THUNDER HX 104
WEST POINT*    MOSUNNY   93  71  48 W6        29.81F HX  99
SALUDA*        FAIR      89  78  70 E3        29.79F HX 103
NEWPORT NEWS   CLOUDY    83  76  79 S9        29.81F THUNDER
LANGLEY AFB    TSTM      84  77  79 NW14      29.82S
FORT EUSTIS    LGT RAIN  86  79  79 S6        29.78F HX  99
WILLIAMSBURG*  PTSUNNY  100  72  39 W10       29.80F HX 109
HR EXEC AP*    FAIR      90  79  70 W6        29.79F HX 105
FRANKLIN*      CLOUDY    82  68  61 NW13G29   29.84R
US460-WAKEFLD  LGT RAIN  75  71  87 S6        29.83S
$$

VAZ020-022-025-037-045-231900-
WEST CENTRAL AND SOUTHWEST VIRGINIA

CITY           SKY/WX    TMP DP  RH WIND       PRES   REMARKS
STAUNTON*      CLOUDY    84  67  57 SW13      29.90F
WAYNESBORO*    CLOUDY    84  69  59 W6        29.89F
HOT SPRINGS VA MOSUNNY   75  55  50 W14       30.04F
LYNCHBURG      SUNNY     91  67  44 VRB3      29.87F
DANVILLE       MOSUNNY   89  74  60 W5        29.86F HX  98
SOUTH BOSTON*  FAIR      91  71  51 CALM      29.84F HX  98
MARTINSVILLE   SUNNY     90  69  50 CALM      29.90F
ROANOKE        MOSUNNY   93  64  38 W9        29.89F
BLACKSBURG     SUNNY     87  64  45 NW8       29.98F
DUBLIN*        SUNNY     88  55  32 NW12G21   29.96F
MARION*        MOSUNNY   85  59  40 W12G23    30.02S
HILLSVILLE*    PTSUNNY   86  58  39 W8G17     29.98F
RICHLANDS*     FAIR      82  65  56 NW5G17    30.02S
WISE*          CLOUDY    81  63  54 NW10G16   30.03F
ABINGDON*      CLOUDY    87  71  58 W14       29.98F
$$

MDZ021>025-VAZ099-100-231900-
SOUTHERN MARYLAND AND THE DELMARVA PENINSULA

CITY           SKY/WX    TMP DP  RH WIND       PRES   REMARKS
PATUXENT RIVER CLOUDY    85  76  74 W8        29.79F
BAY BRIDGE APT CLOUDY    88  75  66 S7        29.78F HX  97
LEONARDTOWN    MOSUNNY   82  73  74 W5        29.81F
DOVER          MOSUNNY   84  84 100 NE5       29.77F HX 105
GEORGETOWN     PTSUNNY   88  72  58 CALM      29.79F
EASTON         MOSUNNY   86  70  58 NW3       29.82F
CAMBRIDGE      SUNNY     86  73  66 CALM      29.79F
SALISBURY      MOSUNNY   88  75  66 SW8       29.79F HX  97
OCEAN CITY     CLOUDY    87  76  69 NW7       29.79F HX  97
WALLOPS ISLAND PTSUNNY   88  75  65 W10       29.80F HX  97
ACCOMACK*      MOSUNNY   90  71  53 W6        29.80F HX  96
$$

NCZ012>017-030>032-231900-
NORTH CENTRAL AND EASTERN NORTH CAROLINA

CITY           SKY/WX    TMP DP  RH WIND       PRES   REMARKS
ROANOKE RAPIDS FAIR      90  73  58 W3        29.83F HX  98
RALEIGH        MOSUNNY   99  70  38 VRB7G17   29.84F HX 106
ELIZABETH CITY PTSUNNY   92  81  70 SW6       29.82F HX 112
AHOSKIE*         N/A     78  76  94 CALM      29.84S
EDENTON*       MOSUNNY   93  79  64 SW8       29.84F HX 110
CURRITUCK*     MOSUNNY   93  78  61 SW9       29.82F HX 108
KILL DEVIL HLS MOSUNNY   90  76  64 W5        29.83F HX 101
MANTEO         MOSUNNY   91  78  63 W13       29.84F HX 105
CAPE HATTERAS  SUNNY     84  76  76 SW14G21   29.89S
TARBORO*       NOT AVBL
GOLDSBORO      MOSUNNY   95  79  58 SW13      29.84F HX 112
WASHINGTON     SUNNY     92  79  63 SW10      29.84F HX 108
GREENVILLE     SUNNY     95  77  55 W7        29.86F HX 109
NEW BERN       MOSUNNY   94  78  60 SW12      29.86F HX 110
WILMINGTON     MOSUNNY   93  77  59 SW8       29.88F HX 107
$$

VAZ048-231900-
ELSEWHERE

CITY           SKY/WX    TMP DP  RH WIND       PRES   REMARKS
HARRISBURG PA  PTSUNNY   87  74  64 SE7       29.77F HX  95
BALTIMORE      CLOUDY    87  73  62 SW8       29.77F
ANNAPOLIS      CLOUDY    85  78  80 CALM      29.77F HX  96
ANDREWS AFB    TSTM      84  73  70 W10       29.80S
PHILADELPHIA   PTSUNNY   86  71  60 E10       29.80F
HENDERSON NC   MOSUNNY   91  68  46 W9        29.85F HX  95
GREENSBORO     MOSUNNY   93  72  50 W5        29.86F HX 101
ROCKY MOUNT    MOSUNNY   95  77  55 VRB5      29.83F HX 109
$$

VAZ100-231900-
MARINE

STATION/POSITION TIME  TEMP    WIND        PRES    WAVE   SWELL
                       AIR SEA DIR/SP/G            HT/PER HT/PER
                 (UTC) (F)     (DEG/KT/KT) (MB)    (FT/S) (FT/S)
BRANDYWINE LGT   1742   80     110/  3/  3 1009.1F
CAPE MAY NJ      1748   82 77  270/  4/  5 1008.3F
LEWES DE         1748   80 74   80/  5/  7 1008.5F
15NM E FENWICK I 1750   78 77  180/  4/  4 1009.7F   3/ 7   3/ 7
OCEAN-CITY-INLET 1748   81 73  160/  5/  6 1009.3F
WACHAPREAGUE VA  1748   92 86  260/  3/  7 1009.1F
THOMAS POINT MD  1800   83 84  180/  6/  8   N/A
GOOSES REEF MD   1800   85 85  270/  4/  6 1009.5    1
COVE POINT MD    1748   87     260/  4/  6 1009.4F
SOLOMONS ISLAND  1742   87 85  240/  2/  6   N/A
BISHOPS HEAD MD  1748   83 86  240/  4/  5 1009.1F
PINEY POINT MD   1742           10/  3/  3   N/A
POTOMAC MD       1800   86 86   CALM  /  2 1007.8    0
CAMBRIDGE MD     1748   86 88              1009.7F
LEWISETTA VA     1748   88 86  220/  2/  3 1008.6F
RAPPAHANNOCK LGT 1742          250/  2/  3 1009.9F
STINGRAY PT      1750   88      90/  4/  4 1009.4F
YORK RVR RNG VA  1748   84     220/ 13/ 16 1009.5F
YORKTOWN VA      1748   86 83  190/  7/  7 1009.1F
JAMESTOWN VA     1800      88  300/  8/ 10   N/A     1
DOMINION TERM VA 1748   88     220/  5/  6 1009.7F
KIPTOPEKE VA     1742      78  340/  2/  3   N/A
CHES BAY BRIDGE  1748   87 80  250/  9/ 10 1009.3F
CAPE HENRY VA    1748   87     290/  6/ 10   N/A
WILLOUBY STN VA  1748   88     220/  7/  8 1009.7F
S CRANEY ISL VA  1748   89     250/  5/  8 1009.6F
CAPE HENRY BUOY  1730      74                N/A     3/ 5
1ST LANDING BUOY 1800   85 79              1009.3    1
64NM E OF VA BCH 1750   81 80  240/ 10/ 12 1010.7F   4/ 6   3/ 6
DUCK PIER NC     1748   87 58  240/ 12/ 14 1009.8F
44100 DUCK FRF   1735      70                N/A     3/ 6
44056 DUCK FRF   1800      63                N/A     2/10
OREGON INLET NC  1736   85 84  200/ 19/ 23 1010.5F
HATTERAS NC      1748   82 76  220/ 11/ 16 1012.0F
DIAMOND SHLS NC  1750   84 84  230/ 21/ 25 1012.0F   7/ 7   2/10
CAPE LOOKOUT NC  1800   84     210/ 17/ 21 1012.3F
$$




USA.gov is the U.S. government's official web portal to all federal, state and local government web resources and services.